Погода в Саянске

Россия / Красноярский край     54°09′02″N   91°53′01″E
темп.,
°C
ветер,
м/с
пор.,
м/с
влажн.,
%
обл.,
%
осадки,
мм/ч
давл.,
гПа
погр.,
м
5 марта, пт
пт501:00−12вюв228592 0.0 102421
04:00−12вюв2287100 0.0 102320
07:00−15вюв1187100 0.0 102220
10:00−11юв228897 0.0 102096
13:00−9юв248685 0.0 1017290
16:00−7юв3591100 0.0 1016299
19:00−7ююв2390100 0.0 101936
22:00−6юз5118167 0.0 1022222
6 марта, сб
сб601:00−7ююз5117875 0.0 1025229
04:00−8ю3780100 0.0 1023129
07:00−6ю41483100 0.0 1023408
10:00−5ю41383100 0.0 1022588
13:00−2ю41175100 0.0 1021851
16:00−2ю31183100 0.0 1018711
19:00−3ю3479100 0.0 101768
22:00−4ю3374100 0.0 101627
7 марта, вс
вс701:00−4ю3480100 0.0 101677
04:00−4ю4582100 0.0 1015109
07:00−5ю4978100 0.0 1016193
10:00−4ю41582100 0.0 1016506
13:00−1юз61377100 0.0 1016656
16:000з3884100 0.1 10171217
19:00−3зюз2380100 0.1 102040
22:00−6з228196 0.0 102321
8 марта, пн
пн801:00−11зсз118162 0.0 102521
04:00−12в128644 0.0 102621
07:00−13вюв228664 0.0 102621
10:00−9вюв238983 0.0 1022115
13:00−5юв238791 0.0 1018297
16:00−3ююв1390100 0.0 1015296
19:00−6юв1295100 0.0 101430
22:00−5юв2297100 0.0 101430
9 марта, вт
вт901:00−5ююв3395100 0.0 101465
04:00−5ююз3587100 0.0 1016106
07:00−4ююз498873 0.0 1020193
10:00−4зюз498469 0.0 1022354
13:00−4зсз367385 0.0 1023454
16:00−4сз2679100 0.0 1024343
19:00−10юв117053 0.0 102621
22:00−11вюв12679 0.0 102621